Location: Warszawa
(52.2500°N, 21.0000°E)
Time: 23:25:14
(UTC+01:00)

A-11 Canister half - Pass Details

Date: 16 February 2023
Orbit: 1526 x 1682 km, 47.3° (Epoch: 22 March)

Event Time Altitude Azimuth Distance (km) Brightness Sun altitude
Exits shadow 03:25:40 53° 194° (SSW) 1,828 9.1 -31.5°
Maximum altitude 03:27:07 57° 163° (SSE) 1,750 9.1 -31.3°
Drops below altitude 10° 03:36:09 10° 88° (E) 3,708 11.8 -30.0°
Sets 03:39:15 0° 84° (E) 4,702 12.7 -29.6°
